Regional Weather Roundup
Issued by NWS

Home | Current Version | Previous Version | Text Only | Print | Product List | Glossary Off
Versions: 1 2 3 4 5 6 7 8 9 10 11 12 13 14 15 16 17 18 19 20 21 22 23 24 25 26 27 28 29 30 31 32 33 34 35 36 37 38 39 40 41 42 43 44 45 46 47 48 49 50

000
ASUS45 KBOU 212307
RWRCO

WEATHER ROUNDUP FOR COLORADO
NATIONAL WEATHER SERVICE DENVER/BOULDER CO
500 PM MDT SUN SEP 21 2014

NOTE: "FAIR" INDICATES FEW OR NO CLOUDS BELOW 12000 FEET WITH NO
SIGNIFICANT WEATHER AND/OR OBSTRUCTIONS TO VISIBILITY.

COZ001>005-013-030-031-220000-
...NORTHWEST COLORADO...

CITY           SKY/WX    TMP DP  RH WIND       PRES   REMARKS
CRAIG          CLOUDY    68  50  52 E17       30.27F
HAYDEN         CLOUDY    61  48  63 E12       30.31F
MEEKER         NOT AVBL
MOUNT WERNER   NOT AVBL
STEAMBOAT SPGS CLOUDY    57  53  84 W7        30.34R
WALDEN         CLOUDY    61  41  48 S7        30.42S
$$

COZ006>008-011-220000-
...WEST CENTRAL VALLEYS...

CITY           SKY/WX    TMP DP  RH WIND       PRES   REMARKS
GRAND JUNCTION PTSUNNY   67  57  70 W17G28    30.18R
MONTROSE       MOSUNNY   78  54  43 N6        30.19S
EAGLE          MOSUNNY   70  48  46 E8        30.32F
RIFLE          PTSUNNY   75  48  38 E9        30.19F
DELTA          RAIN      81  50  33 N6        30.15S
NUCLA          MOSUNNY   81  41  24 S14G22    30.22S
$$

COZ017>023-064>068-220000-
...SOUTHWEST COLORADO...

CITY           SKY/WX    TMP DP  RH WIND       PRES   REMARKS
DURANGO        CLOUDY    76  42  29 SW9       30.26F
CORTEZ         PTSUNNY   79  51  37 S8        30.19F
PAGOSA SPRINGS CLOUDY    73  38  28 W10       30.35S
TELLURIDE      NOT AVBL
WOLF CREEK PAS CLOUDY    50  36  57 SW12G22   30.64S
$$

COZ009-010-012-014-032>034-037-058>063-220000-
...CENTRAL COLORADO...

CITY           SKY/WX    TMP DP  RH WIND       PRES   REMARKS
ASPEN          MOSUNNY   67  47  48 N6        30.35F
BUENA VISTA    MOSUNNY   61  50  67 SE12G17   30.42S
COPPER MTN     PTSUNNY   52  45  76 NW3       30.67S
BERTHOUD PASS  CLOUDY    41  37  87 SE9       30.71F
COTTONWOOD PAS CLOUDY    59  46  63 SE6       30.53S
GUNNISON       SUNNY     70  46  43 E9        30.36F
KREMMLING      CLOUDY    55  48  76 SW3       30.42F
LEADVILLE      MOSUNNY   60  38  43 MISG      30.49F
MONARCH PASS   FOG       45  43  93 E7        30.76F VSB<1/4
SALIDA         MOSUNNY   63  54  72 E10G18    30.46F
SUNLIGHT       MOSUNNY   52  45  76 E3        30.58S
WILKERSON PASS NOT AVBL
$$

COZ069>075-220000-
...SAN LUIS VALLEY/SANGRE DE CRISTO MOUNTAINS...

CITY           SKY/WX    TMP DP  RH WIND       PRES   REMARKS
ALAMOSA        CLOUDY    70  45  40 E15       30.33F
LA VETA PASS   CLOUDY    48  45  87 NE18G25   30.56F
SAGUACHE       NOT AVBL
$$

COZ035-036-038>040-220000-
...NORTHERN COLORADO FRONT RANGE...

CITY           SKY/WX    TMP DP  RH WIND       PRES   REMARKS
DENVER INTL AP CLOUDY    72  50  45 NW9       30.27R
DMNS CITY PARK   N/A     69  49  48 N3        30.27S
AURORA         PTSUNNY   69  50  50 NW8       30.29S
FRONT RANGE AP NOT AVBL
ERIE MUNI ARPT NOT AVBL
BOULDER MUN AP CLOUDY    68  48  49 CALM      30.27S
CENTENNIAL     PTSUNNY   67  50  54 NW10      30.30S
BROOMFIELD     PTSUNNY   68  48  49 NW5       30.30S
FORT COLLINS   PTSUNNY   72  48  43 W7        30.26S
LONGMONT       PTSUNNY   71  51  49 CALM      30.27F HAZE
$$

COZ041-046-047-076>085-087-088-220000-
...PIKES PEAK/PALMER DIVIDE AND SOUTHERN FOOTHILLS...

CITY           SKY/WX    TMP DP  RH WIND       PRES   REMARKS
COLO. SPRINGS  PTSUNNY   70  49  47 S17       30.35F
A. F. ACADEMY  MOSUNNY   68  49  50 S21       30.36S
ELLICOTT       NOT AVBL
FALCON         MOSUNNY   67  47  48 S14       30.40F
FORT CARSON    CLOUDY    68  50  53 S10       30.33F
LIMON          MOSUNNY   71  42  35 S16G24    30.32S
MONUMENT HILL  MOSUNNY   63  46  55 S17G26    30.36F
TRINIDAD       PTSUNNY   72  50  45 SE15      30.31S
$$

COZ042>045-048>051-090-091-220000-
...NORTHEAST COLORADO...

CITY           SKY/WX    TMP DP  RH WIND       PRES   REMARKS
GREELEY ARPT   PTSUNNY   79  52  38 S10G22    30.23F
AKRON          MOSUNNY   70  41  34 SE16G25   30.29S
BURLINGTON     MOSUNNY   72  37  28 E14G22    30.29F
WRAY           PTSUNNY   75  38  26 SE5       30.29S
STERLING       MOSUNNY   77  45  31 SE10G20   30.26S
HOLYOKE        SUNNY     73  39  29 E10       30.29S
FORT MORGAN    MOSUNNY   75  43  31 E14G20    30.26F
$$

COZ086-089-092>099-220000-
...SOUTHEAST COLORADO...

CITY           SKY/WX    TMP DP  RH WIND       PRES   REMARKS
PUEBLO         PTSUNNY   76  48  37 SE7       30.26F
LA JUNTA       SUNNY     80  43  26 E18       30.25F
LAMAR          SUNNY     80  43  26 SE14      30.23F
SPRINGFIELD      N/A     76  43  30 SE15      30.27S
$$



USA.gov is the U.S. government's official web portal to all federal, state and local government web resources and services.